Weather History for PASI - April, 2014

Change the Weather History Date:

Monday, April 7, 2014

  Actual Average Record
Temperature  
Mean Temperature 44 °F -  
Max Temperature 48 °F 46 °F 55 °F (2006)
Min Temperature 39 °F 35 °F 15 °F (2006)
Degree Days  
Heating Degree Days 22    
Moisture  
Dew Point 40 °F    
Average Humidity 88    
Maximum Humidity 96    
Minimum Humidity 71    
Precipitation  
Precipitation 1.15 in - - ()
Sea Level Pressure  
Sea Level Pressure 29.37 in    
Wind  
Wind Speed 18 mph (SSE)    
Max Wind Speed 31 mph    
Max Gust Speed 45 mph    
Visibility 4 miles    
Events Rain    
Averages and records for this station are not official NWS values.
T = Trace of Precipitation, MM = Missing Value Source: NWS Daily Summary

Daily Weather History Graph

Daily Weather History Graph

Search for Another Location

Airport or City:

Trip Planner

Search our weather history database for the weather conditions in past years. The results will help you decide how hot, cold, wet, or windy it might be!

Date:

Astronomy

Apr. 07, 2014 Rise Set
Actual Time 6:13 AM AKDT 7:54 PM AKDT
Civil Twilight 5:33 AM AKDT 8:34 PM AKDT
Nautical Twilight 4:43 AM AKDT 9:25 PM AKDT
Astronomical Twilight 3:46 AM AKDT 10:23 PM AKDT
Moon 11:46 AM AKDT (4/7) 3:08 AM AKDT (4/7)
Length of Visible Light 15h 00m
Length of Day
13h 40m
First Quarter, 55% of the Moon is Illuminated
Apr 7
First Quarter
Apr 14
Full
Apr 21
Last Quarter
Apr 28
New
May 6
First Quarter

Hourly Weather History & Observations

Time (AKDT) Temp. Windchill Dew Point Humidity Pressure Visibility Wind Dir Wind Speed Gust Speed Precip Events Conditions
12:53 AM 45.0 °F 37.1 °F 36.0 °F 71% 29.40 in 10.0 mi ESE 19.6 mph 27.6 mph 0.02 in Rain Light Rain
1:53 AM 45.0 °F 36.0 °F 37.0 °F 74% 29.37 in 7.0 mi ESE 25.3 mph 31.1 mph 0.11 in Rain Rain
2:53 AM 44.1 °F 35.9 °F 37.0 °F 76% 29.36 in 6.0 mi ESE 19.6 mph 29.9 mph 0.07 in   Haze
3:53 AM 46.0 °F 37.6 °F 37.0 °F 71% 29.34 in 10.0 mi ESE 24.2 mph 31.1 mph 0.03 in   Overcast
4:36 AM 46.0 °F 37.8 °F 37.9 °F 73% 29.34 in 10.0 mi ESE 23.0 mph 27.6 mph N/A   Overcast
4:53 AM 46.9 °F - 37.9 °F 71% 29.34 in 10.0 mi SE 12.7 mph 23.0 mph 0.00 in Rain Light Rain
5:53 AM 46.0 °F 39.6 °F 41.0 °F 83% 29.31 in 5.0 mi ESE 15.0 mph - 0.06 in Rain Rain
6:53 AM 44.1 °F 35.9 °F 41.0 °F 89% 29.28 in 3.0 mi ESE 19.6 mph 27.6 mph 0.15 in Rain Rain
7:16 AM 45.0 °F 37.4 °F 41.0 °F 86% 29.27 in 2.5 mi ESE 18.4 mph - 0.03 in Rain Light Rain
7:53 AM 45.0 °F 38.2 °F 41.0 °F 86% 29.27 in 2.5 mi SE 15.0 mph - 0.09 in Rain Rain
8:26 AM 45.0 °F 37.9 °F 42.1 °F 90% 29.24 in 3.0 mi ESE 16.1 mph - 0.04 in Rain Light Rain
8:53 AM 45.0 °F 38.5 °F 42.1 °F 90% 29.24 in 4.0 mi SE 13.8 mph - 0.05 in Rain Light Rain
9:53 AM 46.9 °F - 43.0 °F 86% 29.23 in 5.0 mi SSE 10.4 mph 25.3 mph 0.03 in Rain Light Rain
10:31 AM 48.9 °F - 42.1 °F 77% 29.22 in 6.0 mi South 19.6 mph 40.3 mph 0.01 in Rain Light Rain
10:53 AM 48.0 °F - 42.1 °F 80% 29.25 in 3.0 mi South 31.1 mph 44.9 mph 0.01 in Rain Light Rain
10:59 AM 48.0 °F - 42.1 °F 80% 29.25 in 2.5 mi South 24.2 mph 44.9 mph 0.00 in Rain Rain
11:06 AM 46.9 °F - 42.1 °F 83% 29.25 in 2.5 mi South 28.8 mph 42.6 mph 0.01 in Rain Rain
11:53 AM 44.6 °F 35.5 °F 42.8 °F 93% 29.28 in 3.0 mi South 25.3 mph 35.7 mph N/A Rain Light Rain
12:03 PM 46.0 °F 37.4 °F 41.0 °F 83% 29.29 in 5.0 mi South 25.3 mph 32.2 mph 0.00 in Rain Light Rain
12:15 PM 46.0 °F 39.3 °F 41.0 °F 83% 29.29 in 5.0 mi South 16.1 mph 36.8 mph 0.00 in Rain Light Rain
12:25 PM 46.0 °F 39.9 °F 42.1 °F 86% 29.30 in 2.5 mi South 13.8 mph - 0.00 in Rain Light Rain
12:33 PM 46.0 °F 38.8 °F 42.1 °F 86% 29.30 in 1.2 mi SSE 18.4 mph 25.3 mph 0.01 in Rain Light Rain
12:53 PM 45.0 °F 37.4 °F 42.1 °F 90% 29.32 in 1.8 mi SSE 18.4 mph - 0.03 in Rain Light Rain
1:33 PM 45.0 °F 36.0 °F 43.0 °F 93% 29.36 in 2.0 mi SSW 25.3 mph 31.1 mph 0.04 in Rain Light Rain
1:41 PM 44.1 °F 35.9 °F 42.1 °F 93% 29.37 in 1.8 mi SSW 19.6 mph 31.1 mph 0.04 in Rain Light Rain
1:45 PM 43.0 °F 34.0 °F 41.0 °F 93% 29.37 in 3.0 mi SSW 21.9 mph 26.5 mph 0.04 in Rain Light Rain
1:53 PM 43.0 °F 35.1 °F 41.0 °F 93% 29.38 in 4.0 mi SSW 17.3 mph 26.5 mph 0.04 in   Overcast
2:15 PM 43.0 °F 35.1 °F 41.0 °F 93% 29.41 in 8.0 mi SSW 17.3 mph 27.6 mph N/A   Overcast
2:30 PM 43.0 °F 34.5 °F 41.0 °F 93% 29.42 in 2.0 mi SSW 19.6 mph 27.6 mph 0.00 in Rain Light Rain
2:53 PM 42.1 °F 34.2 °F 41.0 °F 96% 29.44 in 2.0 mi SSW 16.1 mph 23.0 mph 0.01 in Rain Light Rain
3:00 PM 42.1 °F 33.9 °F 41.0 °F 96% 29.44 in 1.8 mi SSW 17.3 mph 24.2 mph 0.00 in Rain Light Rain
3:07 PM 42.1 °F 33.9 °F 41.0 °F 96% 29.44 in 3.0 mi SSW 17.3 mph 24.2 mph 0.00 in   Overcast
3:11 PM 42.1 °F 33.9 °F 41.0 °F 96% 29.44 in 2.0 mi SSW 17.3 mph 24.2 mph 0.00 in Rain Light Rain
3:33 PM 43.0 °F 35.1 °F 41.0 °F 93% 29.45 in 5.0 mi SSW 17.3 mph 24.2 mph 0.00 in   Overcast
3:42 PM 42.1 °F 35.7 °F 41.0 °F 96% 29.45 in 2.0 mi South 11.5 mph 17.3 mph 0.01 in Rain Light Rain
3:53 PM 42.1 °F 36.6 °F 41.0 °F 96% 29.45 in 2.0 mi South 9.2 mph - 0.01 in Rain Light Rain
4:00 PM 42.1 °F 35.7 °F 41.0 °F 96% 29.45 in 2.0 mi South 11.5 mph - 0.01 in Rain Light Rain
4:05 PM 42.1 °F 37.1 °F 41.0 °F 96% 29.45 in 2.0 mi South 8.1 mph - 0.01 in Rain Light Rain
4:53 PM 42.1 °F 38.4 °F 41.0 °F 96% 29.46 in 2.5 mi South 5.8 mph - 0.05 in Rain Light Rain
5:12 PM 42.1 °F 36.6 °F 39.9 °F 92% 29.46 in 8.0 mi South 9.2 mph - 0.01 in Rain Light Rain
5:22 PM 43.0 °F 37.2 °F 39.9 °F 89% 29.46 in 8.0 mi SSE 10.4 mph - 0.02 in Rain Light Rain
5:53 PM 42.1 °F 40.2 °F 39.9 °F 92% 29.46 in 7.0 mi East 3.5 mph - 0.04 in Rain Light Rain
6:53 PM 42.1 °F 37.1 °F 39.0 °F 89% 29.45 in 9.0 mi East 8.1 mph - 0.03 in Rain Light Rain
7:53 PM 42.1 °F 37.1 °F 39.0 °F 89% 29.45 in 4.0 mi SE 8.1 mph - 0.08 in Rain Light Rain
8:05 PM 42.1 °F 36.6 °F 39.9 °F 92% 29.46 in 5.0 mi South 9.2 mph - 0.03 in Rain Light Rain
8:53 PM 42.1 °F 37.1 °F 39.9 °F 92% 29.46 in 5.0 mi SSE 8.1 mph - 0.10 in Rain Light Rain
9:00 PM 42.1 °F 37.7 °F 39.9 °F 92% 29.46 in 5.0 mi South 6.9 mph - 0.02 in Rain Rain
9:26 PM 41.0 °F 34.3 °F 39.0 °F 93% 29.47 in 4.0 mi South 11.5 mph - 0.07 in Rain Rain
9:53 PM 39.9 °F 33.9 °F 37.9 °F 93% 29.47 in 7.0 mi SSE 9.2 mph - 0.11 in Rain Light Rain
10:53 PM 39.9 °F 35.8 °F 37.0 °F 89% 29.47 in 10.0 mi East 5.8 mph - 0.01 in Rain Light Rain
11:53 PM 39.9 °F 35.1 °F 37.9 °F 93% 29.48 in 3.0 mi East 6.9 mph - 0.02 in Rain Light Rain